This demonstration page uses our WeatherBlox Daily Observations layout. Learn more.

Left ArrowRight Arrow

36.17497, -115.13722

Hourly Observations for March 30, 2015

Temp ( °F °C ) Dew Point ( °F °C ) Humidity (%) Winds ( mph kmh ) Pressure ( in mb ) Visibility ( mi km ) Precip ( " mm )
12:53 am 00:53 Clear 67 19.4 24 -4.4 20 20 NW 3 6 30.00 1016 10 16 N/A
1:53 am 01:53 Clear 67 19.4 20 -6.7 17 17 NNW 7 11 29.99 1016 10 16 N/A
2:53 am 02:53 Clear 65 18.3 23 -5 20 20 NW 5 7 29.98 1015 10 16 N/A
3:53 am 03:53 Clear 66 18.9 24 -4.4 20 20 W 7 11 29.99 1016 10 16 N/A
4:53 am 04:53 Clear 64 17.8 21 -6.1 19 19 N N/A 30.00 1016 10 16 N/A
5:53 am 05:53 Clear 62 16.7 22 -5.6 21 21 NW 7 11 30.01 1016 10 16 N/A
6:53 am 06:53 Sunny 63 17.2 23 -5 22 22 N N/A 30.04 1017 10 16 N/A
7:53 am 07:53 Sunny 66 18.9 24 -4.4 20 20 N N/A 30.05 1018 10 16 N/A
8:53 am 08:53 Sunny 70 21.1 19 -7.2 14 14 N N/A 30.07 1018 10 16 N/A
9:53 am 09:53 Sunny 74 23.3 18 -7.8 12 12 SSE 3 6 30.08 1019 10 16 N/A
10:53 am 10:53 Sunny 78 25.6 15 -9.4 9 9 VRB 3 6 30.08 1019 10 16 N/A
11:53 am 11:53 Sunny 82 27.8 14 -10 8 8 VRB 6 9 30.06 1018 10 16 N/A
12:53 pm 12:53 Sunny 85 29.4 15 -9.4 7 7 ESE 7 11 30.03 1017 10 16 N/A
1:53 pm 13:53 Sunny 86 30 13 -10.6 6 6 VRB 6 9 30.00 1016 10 16 N/A
2:53 pm 14:53 Sunny 88 31.1 11 -11.7 5 5 SSE 6 9 29.95 1014 10 16 N/A
3:53 pm 15:53 Sunny 89 31.7 12 -11.1 5 5 S 10 17 29.92 1013 10 16 N/A
4:53 pm 16:53 Sunny 88 31.1 13 -10.6 6 6 SSE 8 13 29.90 1013 10 16 N/A
5:53 pm 17:53 Sunny 88 31.1 13 -10.6 6 6 VRB 6 9 29.89 1012 10 16 N/A
6:53 pm 18:53 Sunny 85 29.4 15 -9.4 7 7 SE 8 13 29.89 1012 10 16 N/A
7:53 pm 19:53 Clear 81 27.2 16 -8.9 9 9 SE 8 13 29.91 1013 10 16 N/A
8:53 pm 20:53 Clear 80 26.7 17 -8.3 9 9 ESE 5 7 29.92 1013 10 16 N/A
9:53 pm 21:53 Clear 76 24.4 22 -5.6 13 13 WNW 5 7 29.92 1013 10 16 N/A
10:53 pm 22:53 Clear 74 23.3 23 -5 15 15 WNW 6 9 29.93 1014 10 16 N/A
11:53 pm 23:53 Clear 74 23.3 22 -5.6 14 14 N N/A 29.93 1014 10 16 N/A

Powered by AerisWeather